Erie, PA

1:04 PM EST on December 11, 2019 (GMT -0500)
Erie International

Weather History for KERI - October, 2019

Change the Weather History Date:

Monday, October 28, 2019

  Actual Average Record
Temperature  
Mean Temperature 58 °F 49 °F  
Max Temperature 69 °F 57 °F 76 °F (1927)
Min Temperature 46 °F 42 °F 23 °F (1895)
Degree Days  
Heating Degree Days 8 16  
Month to date heating degree days 231 331  
Since 1 July heating degree days 243 455  
Cooling Degree Days 0 0  
Month to date cooling degree days 22 7  
Year to date cooling degree days 847 636  
Growing Degree Days 8 (Base 50)    
Moisture  
Dew Point 44 °F    
Average Humidity 72    
Maximum Humidity 86    
Minimum Humidity 39    
Precipitation  
Precipitation 0.00 in 0.12 in 0.68 in (2015)
Month to date precipitation 2.33 3.68  
Year to date precipitation 31.96 34.12  
Snow  
Snow 0.00 in 0.00 in - ()
Month to date snowfall 0.0 0.1  
Since 1 July snowfall 0.0 0.1  
Since 1 September snowfall 0.0 0.1  
Snow Depth 0.00 in    
Sea Level Pressure  
Sea Level Pressure 30.10 in    
Wind  
Wind Speed 5 mph ()    
Max Wind Speed 14 mph    
Max Gust Speed 18 mph    
Visibility 10.0 miles    
Events      
T = Trace of Precipitation, MM = Missing Value Source: Averaged Metar Reports

Daily Weather History Graph

Daily Weather History Graph

Search for Another Location

Airport or City:

Astronomy

Oct. 28, 2019 Rise Set
Actual Time 7:48 AM EDT 6:20 PM EDT
Civil Twilight 7:19 AM EDT 6:48 PM EDT
Nautical Twilight 6:46 AM EDT 7:21 PM EDT
Astronomical Twilight 6:14 AM EDT 7:54 PM EDT
Moon 8:07 AM EDT (10/28) 7:04 PM EDT (10/28)
Length of Visible Light 11h 29m
Length of Day
10h 31m
New Moon, 0% of the Moon is Illuminated
Oct 28
New Moon
Nov 4
First Quarter
Nov 12
Full
Nov 19
Last Quarter
Nov 26
New

Hourly Weather History & Observations

Time (EDT) Temp. Dew Point Humidity Pressure Visibility Wind Dir Wind Speed Gust Speed Precip Events Conditions
12:51 AM 50.0 °F 45.0 °F 83% 30.05 in 10.0 mi South 5.8 mph - N/A   Clear
1:51 AM 48.9 °F 45.0 °F 86% 30.06 in 10.0 mi South 5.8 mph - N/A   Clear
2:51 AM 48.9 °F 44.1 °F 83% 30.07 in 10.0 mi South 5.8 mph - N/A   Clear
3:51 AM 48.0 °F 44.1 °F 86% 30.09 in 10.0 mi South 5.8 mph - N/A   Clear
4:51 AM 48.0 °F 44.1 °F 86% 30.10 in 10.0 mi South 5.8 mph - N/A   Clear
5:51 AM 46.9 °F 43.0 °F 86% 30.11 in 10.0 mi South 5.8 mph - N/A   Clear
6:51 AM 46.9 °F 43.0 °F 86% 30.12 in 10.0 mi South 6.9 mph - N/A   Clear
7:51 AM 46.9 °F 42.1 °F 83% 30.13 in 10.0 mi South 6.9 mph - N/A   Clear
8:51 AM 48.0 °F 43.0 °F 83% 30.14 in 10.0 mi South 8.1 mph - N/A   Clear
9:51 AM 53.1 °F 44.1 °F 71% 30.14 in 10.0 mi South 6.9 mph - N/A   Clear
10:51 AM 57.9 °F 44.1 °F 60% 30.14 in 10.0 mi South 6.9 mph - N/A   Clear
11:51 AM 61.0 °F 43.0 °F 52% 30.14 in 10.0 mi South 9.2 mph - N/A   Clear
12:51 PM 64.0 °F 42.1 °F 45% 30.12 in 10.0 mi South 13.8 mph - N/A   Clear
1:51 PM 66.0 °F 41.0 °F 40% 30.10 in 10.0 mi South 9.2 mph - N/A   Clear
2:51 PM 68.0 °F 42.1 °F 39% 30.07 in 10.0 mi North - - N/A   Clear
3:51 PM 63.0 °F 46.9 °F 56% 30.08 in 10.0 mi NNW 8.1 mph - N/A   Clear
4:51 PM 62.1 °F 46.0 °F 56% 30.08 in 10.0 mi ENE 8.1 mph - N/A   Clear
5:51 PM 60.1 °F 48.0 °F 64% 30.09 in 10.0 mi NNE 5.8 mph - N/A   Clear
6:51 PM 55.9 °F 46.0 °F 69% 30.10 in 10.0 mi NNE 3.5 mph - N/A   Clear
7:51 PM 51.1 °F 45.0 °F 80% 30.11 in 10.0 mi Calm Calm - N/A   Clear
8:51 PM 48.9 °F 45.0 °F 86% 30.10 in 10.0 mi Calm Calm - N/A   Clear
9:51 PM 48.0 °F 44.1 °F 86% 30.09 in 10.0 mi SSE 3.5 mph - N/A   Clear
10:51 PM 46.0 °F 42.1 °F 86% 30.09 in 10.0 mi Calm Calm - N/A   Clear
11:51 PM 50.0 °F 41.0 °F 71% 30.07 in 10.0 mi SSW 3.5 mph - N/A   Clear